IRIDIUM 66 [B] (25289 NORAD) Tracking and Keplerian Element Data

This shows tracking and keplerian element data for the satellite.

Feedback or suggestion? Click here.




ElementValue
Catalog25289
NameIRIDIUM 66 [B]
Epoch Orbit6175
Epoch Day198.76052298
Epoch Year2018
RAAN58.4286
Inclination86.42
Eccentricity0.0002113
Argument of Perigee80.4868
Mean Anonmoly279.6569
Mean Motion14.38608541
Decay Rate7.9E-07
L11 25289U 98021E 18198.76052298 .00000079 00000-0 19452-4 0 9993
L22 25289 86.4200 58.4286 0002113 80.4868 279.6569 14.38608541 61755

Live tracking and technical data element details for IRIDIUM 66 [B] (NORAD 25289). IRIDIUM 66 [B] can be tracked NOW for your location showing map with azimuth and elevation plus other details from your city location.

Track the satellite on the map from your city or location and see movement details for azimuth, elevation, latitude, longitude, range, height, and movement on the map or in text.







IsCatalogInMostPopularTable: catalog: 25289, numindb: 41
Update: records affected: 1



GetName: 25289 IRIDIUM 66 [B]

Hit Count: updated at: Fri, 20 Jul 2018 06:55:26 GMT